Location: Sternwarte_Laufen
(47.9344°N, 12.9346°E)
Time: 10:08:58
(UTC+01:00)

N. Korean satellite - Visible Passes

Search period start: 19 February 2019 00:00
Search period end: 01 March 2019 00:00
Orbit: 457 x 510 km, 97.2° (Epoch: 18 February)

Date Brightness Start Highest point End Pass type
(mag) Time Alt. Az. Time Alt. Az. Time Alt. Az.
19 Feb 8.2 06:00:33 10° NNE 06:03:48 37° E 06:07:01 10° SSE visible
19 Feb 9.3 18:13:02 10° SSW 18:16:09 25° W 18:19:14 10° NW visible
20 Feb 9.5 05:36:20 10° NE 05:38:55 19° E 05:41:27 10° SE visible
21 Feb 10.4 05:13:34 10° E 05:13:56 10° E 05:14:18 10° E visible
22 Feb 7.0 06:19:35 10° NNE 06:23:03 66° ESE 06:26:27 10° S visible
22 Feb 10.1 18:33:12 10° SW 18:35:29 16° W 18:37:45 10° NW visible
23 Feb 8.6 05:55:04 10° NNE 05:58:13 31° E 06:01:19 10° SSE visible
23 Feb 9.1 18:07:23 10° SSW 18:10:35 29° W 18:13:44 10° NW visible
24 Feb 9.8 05:30:59 10° NE 05:33:18 17° E 05:35:36 10° SE visible
26 Feb 7.3 06:14:02 10° NNE 06:17:26 55° E 06:20:49 10° S visible
26 Feb 10.0 18:27:22 10° SW 18:29:52 18° W 18:32:21 10° NW visible
27 Feb 8.9 05:49:34 10° NE 05:52:35 27° E 05:55:34 10° SSE visible
28 Feb 9.9 05:25:38 10° NE 05:27:39 15° E 05:29:38 10° SE visible
